Regional Weather Roundup
Issued by NWS

Home | Current Version | Previous Version | Text Only | Print | Product List | Glossary On
Versions: 1 2 3 4 5 6 7 8 9 10 11 12 13 14 15 16 17 18 19 20 21 22 23 24 25 26 27 28 29 30 31 32 33 34 35 36 37 38 39 40 41 42 43 44 45 46 47 48 49 50
000
ASUS43 KLSX 011507
RWRMO

WEATHER SUMMARY FOR MISSOURI
NATIONAL WEATHER SERVICE SPRINGFIELD MO
1000 AM CDT SAT AUG 01 2015

NOTE: "FAIR" INDICATES FEW OR NO CLOUDS BELOW 12,000 FEET WITH NO
       SIGNIFICANT WEATHER AND/OR OBSTRUCTIONS TO VISIBILITY.
       CURRENT SKY AND/OR WEATHER CONDITIONS ARE NOT AVAILABLE FOR
       CHILLICOTHE AND FARMINGTON.

MOZ001>031-035>038-043-044-053-054-011600-
...NORTHERN AND WESTERN MISSOURI...

CITY           SKY/WX    TMP DP  RH WIND       PRES   REMARKS
KANSAS CTY INT MOSUNNY   81  73  76 W7        30.07S
KANSAS C DTWN  PTSUNNY   84  74  71 NW7       30.06R HX  91
LEE`S SUMMIT   SUNNY     85  74  69 NW6       30.08R HX  92
ST JOSEPH      MOSUNNY   81  73  76 W3        30.06S
CHILLICOTHE      N/A     83  74  74 S3        30.05F
KIRKSVILLE     PTSUNNY   79  68  69 S8        30.07F

$$
MOZ066>068-077>081-088>096-101>105-011600-
...SOUTHWEST MISSOURI...

CITY           SKY/WX    TMP DP  RH WIND       PRES   REMARKS
SPRINGFIELD    SUNNY     82  62  50 VRB3      30.10S
JOPLIN         SUNNY     84  62  47 SW6       30.10S

$$
MOZ032>034-039>042-045>050-055>058-069>072-011600-
...CENTRAL MISSOURI...

CITY           SKY/WX    TMP DP  RH WIND       PRES   REMARKS
COLUMBIA       SUNNY     80  69  69 CALM      30.08S
JEFFERSON CITY SUNNY     82  68  62 CALM      30.06F
ROLLA          SUNNY     81  70  69 NW7       30.08S
SEDALIA        SUNNY     85  73  67 NW7       30.09R HX  91
WHITEMAN AFB   SUNNY     84  73  68 NW7       30.06S HX  90
OSAGE BEACH    SUNNY     81  70  69 W5        30.09S

$$
MOZ051-052-059>065-011600-
...EAST CENTRAL MISSOURI...

CITY           SKY/WX    TMP DP  RH WIND       PRES   REMARKS
ST LOUIS INTL  PTSUNNY   80  61  52 SE6       30.08R
SPIRIT OF STL  PTSUNNY   77  69  76 CALM      30.06F
ST CHARLES     PTSUNNY   79  63  57 SE6       30.06S

$$
MOZ072>076-082>087-097>100-106>115-011600-
...SOUTH CENTRAL AND SOUTHEAST MISSOURI...

CITY           SKY/WX    TMP DP  RH WIND       PRES   REMARKS
CAPE GIRARDEAU SUNNY     83  68  60 NE8       30.04S
FARMINGTON     SUNNY     81  70  69 E5        30.12S
POPLAR BLUFF   SUNNY     84  69  60 CALM      30.03F
WEST PLAINS    SUNNY     84  63  49 NW7       30.11F

$$


USA.gov is the U.S. government's official web portal to all federal, state and local government web resources and services.